Tracking 33198 objects as of 13-Feb-2026
HD Live streaming from Space Station
objects crossing your sky now

TOS R/B

Track TOS R/B now!


NORAD ID: 22797
Int'l Code: 1993-058D
Perigee: 338.8 km
Apogee: 37,890.4 km
Inclination: 15.0 °
Period: 674.8 minutes
Semi major axis: 25485 km
RCS: 9.198 m2 (large)
Launch date: September 12, 1993
Source: United States (US)
Launch site: AIR FORCE EASTERN TEST RANGE (AFETR)

Note: This is a ROCKET BODY
Your satellite tracking list
Your tracking list is empty




NASA's NSSDC Master Catalog

Two Line Element Set (TLE):
1 22797U 93058D   26042.20607175  .00000095  00000-0  33403-3 0  9994
2 22797  14.9749 109.1075 7367229   4.4608 359.6436  2.13383385245704
Source of the keplerian elements: AFSPC